Hagerstown, MD

8:55 AM EDT on October 21, 2017 (GMT -0400)
Hagerstown Regional-Henson

Weather History for KHGR - February, 2013

Change the Weather History Date:

Monday, February 11, 2013

  Actual Average Record
Temperature  
Mean Temperature 44 °F 33 °F  
Max Temperature 54 °F 41 °F 68 °F (2009)
Min Temperature 34 °F 25 °F 9 °F (2008)
Degree Days  
Heating Degree Days 21 32  
Month to date heating degree days 385 360  
Since 1 July heating degree days 3125 3384  
Cooling Degree Days 0 0  
Month to date cooling degree days 0 0  
Year to date cooling degree days 0 0  
Moisture  
Dew Point 35 °F    
Average Humidity 72    
Maximum Humidity 100    
Minimum Humidity 44    
Precipitation  
Precipitation 0.13 in 0.09 in 0.13 in (2013)
Month to date precipitation 0.20 1.00  
Year to date precipitation 3.18 3.68  
Sea Level Pressure  
Sea Level Pressure 29.93 in    
Wind  
Wind Speed 9 mph (South)    
Max Wind Speed 17 mph    
Max Gust Speed 23 mph    
Visibility 8 miles    
Events Rain    
T = Trace of Precipitation, MM = Missing Value Source: NWS Daily Summary

Daily Weather History Graph

Daily Weather History Graph

Search for Another Location

Airport or City:

Trip Planner

Search our weather history database for the weather conditions in past years. The results will help you decide how hot, cold, wet, or windy it might be!

Date:

Astronomy

Feb. 11, 2013 Rise Set
Actual Time 7:07 AM EST 5:42 PM EST
Civil Twilight 6:40 AM EST 6:10 PM EST
Nautical Twilight 6:08 AM EST 6:42 PM EST
Astronomical Twilight 5:37 AM EST 7:13 PM EST
Moon 7:31 AM EST (2/11) 7:37 PM EST (2/11)
Length of Visible Light 11h 30m
Length of Day
10h 34m
Waxing Crescent, 3% of the Moon is Illuminated
Feb 11
Waxing Crescent
Feb 17
First Quarter
Feb 25
Full
Mar 4
Last Quarter
Mar 11
New

Hourly Weather History & Observations

Time (EST) Temp. Windchill Dew Point Humidity Pressure Visibility Wind Dir Wind Speed Gust Speed Precip Events Conditions
12:53 AM 39.0 °F 31.8 °F 21.0 °F 49% 30.20 in 10.0 mi SSE 11.5 mph - N/A   Overcast
1:53 AM 35.1 °F 26.4 °F 30.9 °F 85% 30.19 in 5.0 mi SSE 12.7 mph - 0.00 in   Overcast
2:11 AM 33.8 °F 26.4 °F 32.0 °F 93% 30.13 in 4.0 mi SSE 9.2 mph - 0.02 in Rain Light Rain
2:53 AM 34.0 °F 26.6 °F 33.1 °F 96% 30.15 in 4.0 mi SSE 9.2 mph - 0.04 in Rain Light Rain
3:51 AM 33.8 °F 25.8 °F 33.8 °F 100% 30.06 in 5.0 mi SSE 10.4 mph - 0.05 in Rain Light Rain
3:53 AM 34.0 °F 26.6 °F 33.1 °F 96% 30.10 in 5.0 mi South 9.2 mph - 0.05 in Rain Light Rain
4:00 AM 33.8 °F 26.4 °F 33.8 °F 100% 30.05 in 4.0 mi SSE 9.2 mph - 0.01 in Rain Light Rain
4:39 AM 33.8 °F 25.8 °F 33.8 °F 100% 30.03 in 6.0 mi SSE 10.4 mph - 0.03 in Rain Light Rain
4:53 AM 35.1 °F 27.4 °F 34.0 °F 96% 30.07 in 8.0 mi SSE 10.4 mph - 0.03 in Rain Light Rain
5:19 AM 35.6 °F 28.6 °F 33.8 °F 93% 30.01 in 8.0 mi SSE 9.2 mph - 0.00 in   Overcast
5:33 AM 35.6 °F 29.2 °F 33.8 °F 93% 30.00 in 10.0 mi SE 8.1 mph - 0.00 in   Overcast
5:53 AM 36.0 °F 28.5 °F 35.1 °F 97% 30.04 in 10.0 mi SSE 10.4 mph - 0.00 in   Overcast
6:53 AM 36.0 °F 28.0 °F 36.0 °F 100% 30.02 in 10.0 mi SSE 11.5 mph - N/A   Overcast
7:53 AM 37.0 °F 31.0 °F 36.0 °F 96% 29.99 in 8.0 mi SSE 8.1 mph - N/A   Overcast
8:53 AM 39.0 °F 34.0 °F 37.9 °F 96% 29.99 in 9.0 mi South 6.9 mph - N/A   Overcast
9:53 AM 39.9 °F 33.9 °F 39.0 °F 97% 29.96 in 7.0 mi SSE 9.2 mph - 0.00 in Rain Light Rain
10:53 AM 43.0 °F 37.7 °F 41.0 °F 93% 29.93 in 9.0 mi South 9.2 mph - 0.00 in   Overcast
11:53 AM 45.0 °F 41.8 °F 42.1 °F 90% 29.87 in 10.0 mi SSE 5.8 mph - N/A   Overcast
12:11 PM 48.2 °F - 42.8 °F 82% 29.81 in 10.0 mi SSE 11.5 mph - N/A   Overcast
12:41 PM 48.2 °F - 44.6 °F 87% 29.79 in 10.0 mi SSW 6.9 mph - 0.01 in   Scattered Clouds
12:53 PM 50.0 °F - 44.1 °F 80% 29.81 in 10.0 mi South 8.1 mph - 0.01 in   Partly Cloudy
1:53 PM 51.1 °F - 45.0 °F 80% 29.78 in 10.0 mi South 10.4 mph - N/A   Clear
2:53 PM 53.1 °F - 46.0 °F 77% 29.74 in 10.0 mi SSE 8.1 mph - N/A   Clear
3:53 PM 53.1 °F - 46.0 °F 77% 29.73 in 10.0 mi South 8.1 mph - N/A   Clear
4:53 PM 53.1 °F - 46.0 °F 77% 29.71 in 10.0 mi SSE 9.2 mph - N/A   Clear
5:53 PM 60.1 °F - 30.9 °F 33% 29.69 in 10.0 mi WSW 11.5 mph 23.0 mph N/A   Clear
6:53 PM 60.1 °F - 21.0 °F 22% 29.72 in 10.0 mi WSW 9.2 mph 20.7 mph N/A   Clear
7:53 PM 57.9 °F - 21.0 °F 24% 29.74 in 10.0 mi WSW 10.4 mph 19.6 mph N/A   Clear
8:53 PM 54.0 °F - 23.0 °F 30% 29.78 in 10.0 mi West 23.0 mph 32.2 mph N/A   Clear
9:53 PM 48.0 °F - 30.9 °F 52% 29.83 in 10.0 mi WNW 18.4 mph - N/A   Clear
10:53 PM 44.1 °F 37.1 °F 30.9 °F 60% 29.86 in 10.0 mi NW 15.0 mph - N/A   Clear
11:53 PM 44.1 °F 37.7 °F 28.9 °F 55% 29.87 in 10.0 mi WNW 12.7 mph - N/A   Scattered Clouds